Location: Bruderhein
(53.8035°N, 112.9265°W)
Time: 01:39:59
(UTC+00:00)

BEESAT - Pass Details

Date: 06 April 2023
Orbit: 696 x 706 km, 98.5° (Epoch: 31 May)

Event Time Altitude Azimuth Distance (km) Brightness Sun altitude
Rises 07:07:41 0° 5° (N) 3,114 ? -29.5°
Reaches altitude 10° 07:11:22 10° 335° (NNW) 2,188 ? -29.6°
Maximum altitude 07:13:08 12° 313° (NW) 2,049 ? -29.6°
Drops below altitude 10° 07:14:54 10° 292° (WNW) 2,182 ? -29.7°
Enters shadow 07:17:16 - 270° (W) 2,703 ? -29.7°
